Time,TemperatureF,DewpointF,PressureIn,WindDirection,WindDirectionDegrees,WindSpeedMPH,WindSpeedGustMPH,Humidity,HourlyPrecipIn,Conditions,Clouds,dailyrainin,SoftwareType,DateUTC
2013-06-04 00:03:00,59.5,55.0,30.03,ENE,57,0.0,1.0,85,0.00,,,0.00,Wunderground v.1.15,2013-06-04 05:03:00,
2013-06-04 00:08:00,59.4,54.9,30.03,NE,56,0.0,1.0,85,0.00,,,0.00,Wunderground v.1.15,2013-06-04 05:08:00,
2013-06-04 00:14:00,59.3,54.8,30.03,NE,53,0.0,1.0,85,0.00,,,0.00,Wunderground v.1.15,2013-06-04 05:14:00,
2013-06-04 00:20:00,59.2,55.0,30.03,NE,54,0.0,0.0,86,0.00,,,0.00,Wunderground v.1.15,2013-06-04 05:20:00,
2013-06-04 00:25:00,59.0,54.8,30.03,NE,54,0.0,0.0,86,0.00,,,0.00,Wunderground v.1.15,2013-06-04 05:25:00,
2013-06-04 00:31:00,58.8,54.9,30.03,NE,54,0.0,0.0,87,0.00,,,0.00,Wunderground v.1.15,2013-06-04 05:31:00,
2013-06-04 00:37:00,58.5,54.6,30.03,NE,54,0.0,0.0,87,0.00,,,0.00,Wunderground v.1.15,2013-06-04 05:37:00,
2013-06-04 00:43:00,58.2,54.3,30.03,NE,54,0.0,0.0,87,0.00,,,0.00,Wunderground v.1.15,2013-06-04 05:43:00,
2013-06-04 00:48:00,58.0,54.8,30.03,NE,54,0.0,0.0,89,0.00,,,0.00,Wunderground v.1.15,2013-06-04 05:48:00,
2013-06-04 00:54:00,57.8,54.3,30.03,NE,54,0.0,0.0,88,0.00,,,0.00,Wunderground v.1.15,2013-06-04 05:54:00,
2013-06-04 01:00:00,57.6,54.4,30.03,NE,54,0.0,0.0,89,0.00,,,0.00,Wunderground v.1.15,2013-06-04 06:00:00,
2013-06-04 01:06:00,57.2,54.0,30.03,NE,54,0.0,0.0,89,0.00,,,0.00,Wunderground v.1.15,2013-06-04 06:06:00,
2013-06-04 01:11:00,56.9,54.0,30.03,NE,54,0.0,0.0,90,0.00,,,0.00,Wunderground v.1.15,2013-06-04 06:11:00,
2013-06-04 01:16:00,56.8,54.2,30.03,NE,54,0.0,0.0,91,0.00,,,0.00,Wunderground v.1.15,2013-06-04 06:16:00,
2013-06-04 01:22:00,57.0,54.4,30.03,NE,53,0.0,1.0,91,0.00,,,0.00,Wunderground v.1.15,2013-06-04 06:22:00,
2013-06-04 01:28:00,57.2,54.3,30.03,NE,54,0.0,1.0,90,0.00,,,0.00,Wunderground v.1.15,2013-06-04 06:28:00,
2013-06-04 01:34:00,57.4,54.5,30.03,NE,54,1.0,1.0,90,0.00,,,0.00,Wunderground v.1.15,2013-06-04 06:34:00,
2013-06-04 01:39:00,57.5,54.6,30.03,NE,54,0.0,0.0,90,0.00,,,0.00,Wunderground v.1.15,2013-06-04 06:39:00,
2013-06-04 01:45:00,57.5,54.3,30.03,NE,54,0.0,0.0,89,0.00,,,0.00,Wunderground v.1.15,2013-06-04 06:45:00,
2013-06-04 01:51:00,57.5,54.3,30.03,NE,54,0.0,0.0,89,0.00,,,0.00,Wunderground v.1.15,2013-06-04 06:51:00,
2013-06-04 01:56:00,57.4,54.2,30.03,ENE,63,1.0,1.0,89,0.00,,,0.00,Wunderground v.1.15,2013-06-04 06:56:00,
2013-06-04 02:02:00,57.5,54.3,30.03,ENE,60,0.0,0.0,89,0.00,,,0.00,Wunderground v.1.15,2013-06-04 07:02:00,
2013-06-04 02:07:00,57.4,54.2,30.03,ENE,60,0.0,0.0,89,0.00,,,0.00,Wunderground v.1.15,2013-06-04 07:07:00,
2013-06-04 02:12:00,57.2,54.0,30.03,ENE,60,0.0,0.0,89,0.00,,,0.00,Wunderground v.1.15,2013-06-04 07:12:00,
2013-06-04 02:17:00,57.1,54.2,30.03,ENE,60,1.0,1.0,90,0.00,,,0.00,Wunderground v.1.15,2013-06-04 07:17:00,
2013-06-04 02:22:00,57.0,54.1,30.03,ENE,60,0.0,1.0,90,0.00,,,0.00,Wunderground v.1.15,2013-06-04 07:22:00,
2013-06-04 02:27:00,57.0,54.1,30.03,ENE,58,0.0,1.0,90,0.00,,,0.00,Wunderground v.1.15,2013-06-04 07:27:00,
2013-06-04 02:32:00,57.0,54.1,30.03,ENE,60,0.0,0.0,90,0.00,,,0.00,Wunderground v.1.15,2013-06-04 07:32:00,
2013-06-04 02:37:00,57.0,54.1,30.03,ENE,58,0.0,1.0,90,0.00,,,0.00,Wunderground v.1.15,2013-06-04 07:37:00,
2013-06-04 02:42:00,57.0,54.1,30.03,ENE,58,0.0,1.0,90,0.00,,,0.00,Wunderground v.1.15,2013-06-04 07:42:00,
2013-06-04 02:47:00,57.0,54.1,30.03,ENE,58,0.0,1.0,90,0.00,,,0.00,Wunderground v.1.15,2013-06-04 07:47:00,
2013-06-04 02:52:00,57.0,53.8,30.03,East,84,1.0,1.0,89,0.00,,,0.00,Wunderground v.1.15,2013-06-04 07:52:00,
2013-06-04 02:57:00,56.9,53.7,30.03,ENE,68,0.0,1.0,89,0.00,,,0.00,Wunderground v.1.15,2013-06-04 07:57:00,
2013-06-04 03:02:00,56.9,53.7,30.03,ENE,66,0.0,1.0,89,0.00,,,0.00,Wunderground v.1.15,2013-06-04 08:02:00,
2013-06-04 03:07:00,56.9,53.7,30.03,ENE,66,0.0,1.0,89,0.00,,,0.00,Wunderground v.1.15,2013-06-04 08:07:00,
2013-06-04 03:12:00,56.9,53.7,30.03,ENE,66,0.0,1.0,89,0.00,,,0.00,Wunderground v.1.15,2013-06-04 08:12:00,
2013-06-04 03:17:00,56.9,53.7,30.02,ENE,65,1.0,1.0,89,0.00,,,0.00,Wunderground v.1.15,2013-06-04 08:17:00,
2013-06-04 03:22:00,56.9,53.7,30.02,NE,43,0.0,1.0,89,0.00,,,0.00,Wunderground v.1.15,2013-06-04 08:22:00,
2013-06-04 03:27:00,56.9,53.7,30.02,NE,44,0.0,1.0,89,0.00,,,0.00,Wunderground v.1.15,2013-06-04 08:27:00,
2013-06-04 03:32:00,56.9,53.7,30.02,ENE,75,0.0,1.0,89,0.00,,,0.00,Wunderground v.1.15,2013-06-04 08:32:00,
2013-06-04 03:37:00,56.9,53.7,30.02,ENE,75,0.0,1.0,89,0.00,,,0.00,Wunderground v.1.15,2013-06-04 08:37:00,
2013-06-04 03:42:00,56.8,53.6,30.02,ENE,61,0.0,1.0,89,0.00,,,0.00,Wunderground v.1.15,2013-06-04 08:42:00,
2013-06-04 03:47:00,56.8,53.6,30.02,NE,54,0.0,1.0,89,0.00,,,0.00,Wunderground v.1.15,2013-06-04 08:47:00,
2013-06-04 03:52:00,56.8,53.6,30.02,NE,55,1.0,1.0,89,0.00,,,0.00,Wunderground v.1.15,2013-06-04 08:52:00,
2013-06-04 03:57:00,56.7,53.5,30.02,ENE,60,0.0,1.0,89,0.00,,,0.00,Wunderground v.1.15,2013-06-04 08:57:00,
2013-06-04 04:02:00,56.7,53.5,30.02,NE,49,0.0,1.0,89,0.00,,,0.00,Wunderground v.1.15,2013-06-04 09:02:00,
2013-06-04 04:07:00,56.7,53.5,30.02,NE,49,0.0,1.0,89,0.00,,,0.00,Wunderground v.1.15,2013-06-04 09:07:00,
2013-06-04 04:13:00,56.6,53.4,30.02,NE,49,0.0,0.0,89,0.00,,,0.00,Wunderground v.1.15,2013-06-04 09:13:00,
2013-06-04 04:18:00,56.5,53.3,30.02,East,91,0.0,1.0,89,0.00,,,0.00,Wunderground v.1.15,2013-06-04 09:18:00,
2013-06-04 04:23:00,56.4,53.5,30.02,East,92,0.0,0.0,90,0.00,,,0.00,Wunderground v.1.15,2013-06-04 09:23:00,
2013-06-04 04:28:00,56.3,53.4,30.02,East,92,0.0,0.0,90,0.00,,,0.00,Wunderground v.1.15,2013-06-04 09:28:00,
2013-06-04 04:33:00,56.0,53.1,30.02,East,92,0.0,0.0,90,0.00,,,0.00,Wunderground v.1.15,2013-06-04 09:33:00,
2013-06-04 04:38:00,55.5,52.6,30.03,East,91,0.0,0.0,90,0.00,,,0.00,Wunderground v.1.15,2013-06-04 09:38:00,
2013-06-04 04:43:00,54.9,52.3,30.03,East,90,0.0,0.0,91,0.00,,,0.00,Wunderground v.1.15,2013-06-04 09:43:00,
2013-06-04 04:48:00,54.4,52.1,30.03,East,90,0.0,0.0,92,0.00,,,0.00,Wunderground v.1.15,2013-06-04 09:48:00,
2013-06-04 04:53:00,54.2,52.5,30.03,East,90,0.0,0.0,94,0.00,,,0.00,Wunderground v.1.15,2013-06-04 09:53:00,
2013-06-04 04:58:00,54.3,52.6,30.03,East,90,0.0,0.0,94,0.00,,,0.00,Wunderground v.1.15,2013-06-04 09:58:00,
2013-06-04 05:03:00,54.5,52.8,30.03,ENE,77,0.0,1.0,94,0.00,,,0.00,Wunderground v.1.15,2013-06-04 10:03:00,
2013-06-04 05:08:00,54.8,53.1,30.04,ENE,76,0.0,1.0,94,0.00,,,0.00,Wunderground v.1.15,2013-06-04 10:08:00,
2013-06-04 05:13:00,54.7,52.7,30.04,ENE,77,0.0,0.0,93,0.00,,,0.00,Wunderground v.1.15,2013-06-04 10:13:00,
2013-06-04 05:18:00,54.8,53.1,30.04,ENE,65,0.0,1.0,94,0.00,,,0.00,Wunderground v.1.15,2013-06-04 10:18:00,
2013-06-04 05:23:00,54.9,52.9,30.04,ESE,108,0.0,1.0,93,0.00,,,0.00,Wunderground v.1.15,2013-06-04 10:23:00,
2013-06-04 05:28:00,55.1,53.1,30.04,ESE,105,0.0,1.0,93,0.00,,,0.00,Wunderground v.1.15,2013-06-04 10:28:00,
2013-06-04 05:33:00,55.1,53.1,30.04,East,91,0.0,1.0,93,0.00,,,0.00,Wunderground v.1.15,2013-06-04 10:33:00,
2013-06-04 05:38:00,55.1,53.1,30.04,NE,56,0.0,1.0,93,0.00,,,0.00,Wunderground v.1.15,2013-06-04 10:38:00,
2013-06-04 05:43:00,55.1,53.1,30.04,ENE,70,0.0,0.0,93,0.00,,,0.00,Wunderground v.1.15,2013-06-04 10:43:00,
2013-06-04 05:48:00,55.1,53.1,30.04,ENE,69,0.0,0.0,93,0.00,,,0.00,Wunderground v.1.15,2013-06-04 10:48:00,
2013-06-04 05:53:00,55.1,53.1,30.04,ENE,68,0.0,1.0,93,0.00,,,0.00,Wunderground v.1.15,2013-06-04 10:53:00,
2013-06-04 05:58:00,55.2,53.2,30.04,NE,43,0.0,1.0,93,0.00,,,0.00,Wunderground v.1.15,2013-06-04 10:58:00,
2013-06-04 06:03:00,55.3,53.3,30.04,ENE,69,0.0,1.0,93,0.00,,,0.00,Wunderground v.1.15,2013-06-04 11:03:00,
2013-06-04 06:08:00,55.5,53.5,30.04,ESE,106,0.0,1.0,93,0.00,,,0.00,Wunderground v.1.15,2013-06-04 11:08:00,
2013-06-04 06:13:00,55.6,53.3,30.04,East,84,0.0,1.0,92,0.00,,,0.00,Wunderground v.1.15,2013-06-04 11:13:00,
2013-06-04 06:18:00,55.8,53.5,30.04,NE,53,1.0,3.0,92,0.00,,,0.00,Wunderground v.1.15,2013-06-04 11:18:00,
2013-06-04 06:23:00,56.0,53.7,30.04,East,94,0.0,2.0,92,0.00,,,0.00,Wunderground v.1.15,2013-06-04 11:23:00,
2013-06-04 06:28:00,56.4,53.8,30.04,East,98,0.0,2.0,91,0.00,,,0.00,Wunderground v.1.15,2013-06-04 11:28:00,
2013-06-04 06:33:00,57.0,54.1,30.04,East,98,2.0,3.0,90,0.00,,,0.00,Wunderground v.1.15,2013-06-04 11:33:00,
2013-06-04 06:38:00,57.5,54.3,30.04,ESE,103,1.0,4.0,89,0.00,,,0.00,Wunderground v.1.15,2013-06-04 11:38:00,
2013-06-04 06:43:00,58.0,54.5,30.04,SE,138,0.0,2.0,88,0.00,,,0.00,Wunderground v.1.15,2013-06-04 11:43:00,
2013-06-04 06:48:00,58.4,54.5,30.03,NE,49,1.0,3.0,87,0.00,,,0.00,Wunderground v.1.15,2013-06-04 11:48:00,
2013-06-04 06:53:00,58.8,54.9,30.03,ESE,113,1.0,2.0,87,0.00,,,0.00,Wunderground v.1.15,2013-06-04 11:53:00,
2013-06-04 06:58:00,59.0,54.8,30.04,ESE,110,0.0,4.0,86,0.00,,,0.00,Wunderground v.1.15,2013-06-04 11:58:00,
2013-06-04 07:03:00,59.5,55.3,30.04,East,86,2.0,2.0,86,0.00,,,0.00,Wunderground v.1.15,2013-06-04 12:03:00,
2013-06-04 07:08:00,59.7,55.2,30.04,ENE,68,1.0,4.0,85,0.00,,,0.00,Wunderground v.1.15,2013-06-04 12:08:00,
2013-06-04 07:13:00,60.2,55.7,30.04,East,98,0.0,2.0,85,0.00,,,0.00,Wunderground v.1.15,2013-06-04 12:13:00,
2013-06-04 07:18:00,60.8,55.9,30.04,ESE,113,3.0,3.0,84,0.00,,,0.00,Wunderground v.1.15,2013-06-04 12:18:00,
2013-06-04 07:23:00,61.0,55.8,30.04,East,88,0.0,4.0,83,0.00,,,0.00,Wunderground v.1.15,2013-06-04 12:23:00,
2013-06-04 07:28:00,61.2,56.0,30.05,SE,129,3.0,5.0,83,0.00,,,0.00,Wunderground v.1.15,2013-06-04 12:28:00,
2013-06-04 07:33:00,61.6,56.4,30.05,SE,134,1.0,4.0,83,0.00,,,0.00,Wunderground v.1.15,2013-06-04 12:33:00,
2013-06-04 07:38:00,62.3,56.7,30.06,ESE,116,0.0,4.0,82,0.00,,,0.00,Wunderground v.1.15,2013-06-04 12:38:00,
2013-06-04 07:43:00,63.1,57.2,30.06,East,98,1.0,3.0,81,0.00,,,0.00,Wunderground v.1.15,2013-06-04 12:43:00,
2013-06-04 07:48:00,63.5,57.6,30.05,ESE,107,1.0,3.0,81,0.00,,,0.00,Wunderground v.1.15,2013-06-04 12:48:00,
2013-06-04 07:53:00,63.7,57.4,30.05,ESE,122,2.0,4.0,80,0.00,,,0.00,Wunderground v.1.15,2013-06-04 12:53:00,
2013-06-04 07:58:00,63.9,57.6,30.05,East,81,2.0,4.0,80,0.00,,,0.00,Wunderground v.1.15,2013-06-04 12:58:00,
2013-06-04 08:03:00,64.5,58.2,30.05,SE,129,0.0,2.0,80,0.00,,,0.00,Wunderground v.1.15,2013-06-04 13:03:00,
2013-06-04 08:08:00,64.8,58.1,30.05,ENE,77,1.0,3.0,79,0.00,,,0.00,Wunderground v.1.15,2013-06-04 13:08:00,
2013-06-04 08:13:00,65.1,58.4,30.05,ESE,110,0.0,2.0,79,0.00,,,0.00,Wunderground v.1.15,2013-06-04 13:13:00,
2013-06-04 08:18:00,65.6,58.6,30.06,East,88,1.0,3.0,78,0.00,,,0.00,Wunderground v.1.15,2013-06-04 13:18:00,
2013-06-04 08:23:00,65.8,58.7,30.06,ENE,57,1.0,3.0,78,0.00,,,0.00,Wunderground v.1.15,2013-06-04 13:23:00,
2013-06-04 08:28:00,66.3,59.2,30.07,NE,53,4.0,4.0,78,0.00,,,0.00,Wunderground v.1.15,2013-06-04 13:28:00,
2013-06-04 08:33:00,66.7,59.3,30.07,ENE,63,3.0,4.0,77,0.00,,,0.00,Wunderground v.1.15,2013-06-04 13:33:00,
2013-06-04 08:38:00,66.7,59.3,30.07,ESE,111,1.0,4.0,77,0.00,,,0.00,Wunderground v.1.15,2013-06-04 13:38:00,
2013-06-04 08:43:00,67.3,59.5,30.07,ESE,105,2.0,2.0,76,0.00,,,0.00,Wunderground v.1.15,2013-06-04 13:43:00,
2013-06-04 08:48:00,67.9,60.1,30.07,ESE,121,1.0,2.0,76,0.00,,,0.00,Wunderground v.1.15,2013-06-04 13:48:00,
2013-06-04 08:53:00,68.4,60.2,30.07,ENE,77,1.0,2.0,75,0.00,,,0.00,Wunderground v.1.15,2013-06-04 13:53:00,
2013-06-04 08:58:00,68.7,60.5,30.07,ESE,105,2.0,3.0,75,0.00,,,0.00,Wunderground v.1.15,2013-06-04 13:58:00,
2013-06-04 09:03:00,68.9,60.6,30.06,SE,136,1.0,2.0,75,0.00,,,0.00,Wunderground v.1.15,2013-06-04 14:03:00,
2013-06-04 09:08:00,69.7,60.7,30.06,NE,47,3.0,4.0,73,0.00,,,0.00,Wunderground v.1.15,2013-06-04 14:08:00,
2013-06-04 09:13:00,69.5,60.1,30.06,NW,321,0.0,4.0,72,0.00,,,0.00,Wunderground v.1.15,2013-06-04 14:13:00,
2013-06-04 09:18:00,69.6,60.6,30.06,ENE,65,2.0,4.0,73,0.00,,,0.00,Wunderground v.1.15,2013-06-04 14:18:00,
2013-06-04 09:23:00,69.7,60.7,30.05,ESE,120,2.0,4.0,73,0.00,,,0.00,Wunderground v.1.15,2013-06-04 14:23:00,
2013-06-04 09:28:00,69.9,60.5,30.05,East,88,2.0,7.0,72,0.00,,,0.00,Wunderground v.1.15,2013-06-04 14:28:00,
2013-06-04 09:33:00,70.2,60.4,30.06,East,82,2.0,5.0,71,0.00,,,0.00,Wunderground v.1.15,2013-06-04 14:33:00,
2013-06-04 09:38:00,70.2,60.0,30.06,SE,129,0.0,5.0,70,0.00,,,0.00,Wunderground v.1.15,2013-06-04 14:38:00,
2013-06-04 09:43:00,70.6,59.9,30.05,East,101,0.0,3.0,69,0.00,,,0.00,Wunderground v.1.15,2013-06-04 14:43:00,
2013-06-04 09:48:00,71.0,60.3,30.05,SSE,148,2.0,7.0,69,0.00,,,0.00,Wunderground v.1.15,2013-06-04 14:48:00,
2013-06-04 09:53:00,70.9,59.8,30.05,East,94,5.0,7.0,68,0.00,,,0.00,Wunderground v.1.15,2013-06-04 14:53:00,
2013-06-04 09:58:00,70.9,60.2,30.05,SE,146,3.0,7.0,69,0.00,,,0.00,Wunderground v.1.15,2013-06-04 14:58:00,
2013-06-04 10:03:00,71.4,60.3,30.05,East,94,2.0,6.0,68,0.00,,,0.00,Wunderground v.1.15,2013-06-04 15:03:00,
2013-06-04 10:08:00,71.8,61.1,30.05,South,173,1.0,6.0,69,0.00,,,0.00,Wunderground v.1.15,2013-06-04 15:08:00,
2013-06-04 10:13:00,72.3,61.1,30.05,SE,132,1.0,6.0,68,0.00,,,0.00,Wunderground v.1.15,2013-06-04 15:13:00,
2013-06-04 10:18:00,72.4,60.0,30.05,SSE,149,1.0,7.0,65,0.00,,,0.00,Wunderground v.1.15,2013-06-04 15:18:00,
2013-06-04 10:23:00,72.7,61.1,30.05,ESE,121,5.0,7.0,67,0.00,,,0.00,Wunderground v.1.15,2013-06-04 15:23:00,
2013-06-04 10:28:00,72.7,61.1,30.04,SSE,148,1.0,7.0,67,0.00,,,0.00,Wunderground v.1.15,2013-06-04 15:28:00,
2013-06-04 10:33:00,73.1,60.2,30.04,SSE,157,4.0,7.0,64,0.00,,,0.00,Wunderground v.1.15,2013-06-04 15:33:00,
2013-06-04 10:38:00,73.2,60.3,30.04,ENE,64,5.0,8.0,64,0.00,,,0.00,Wunderground v.1.15,2013-06-04 15:38:00,
2013-06-04 10:43:00,73.5,61.0,30.03,SE,131,0.0,7.0,65,0.00,,,0.00,Wunderground v.1.15,2013-06-04 15:43:00,
2013-06-04 10:48:00,73.9,60.1,30.03,ESE,121,4.0,7.0,62,0.00,,,0.00,Wunderground v.1.15,2013-06-04 15:48:00,
2013-06-04 10:53:00,73.8,60.4,30.03,SSE,157,3.0,6.0,63,0.00,,,0.00,Wunderground v.1.15,2013-06-04 15:53:00,
2013-06-04 10:58:00,74.2,59.9,30.03,SSW,211,2.0,6.0,61,0.00,,,0.00,Wunderground v.1.15,2013-06-04 15:58:00,
2013-06-04 11:03:00,74.2,58.9,30.04,ESE,106,4.0,8.0,59,0.00,,,0.00,Wunderground v.1.15,2013-06-04 16:03:00,
2013-06-04 11:08:00,74.3,60.0,30.03,SSW,195,2.0,8.0,61,0.00,,,0.00,Wunderground v.1.15,2013-06-04 16:08:00,
2013-06-04 11:13:00,74.7,61.7,30.03,SSW,200,2.0,5.0,64,0.00,,,0.00,Wunderground v.1.15,2013-06-04 16:13:00,
2013-06-04 11:18:00,75.1,59.8,30.03,SSW,210,2.0,5.0,59,0.00,,,0.00,Wunderground v.1.15,2013-06-04 16:18:00,
2013-06-04 11:23:00,74.7,59.9,30.03,SE,139,3.0,6.0,60,0.00,,,0.00,Wunderground v.1.15,2013-06-04 16:23:00,
2013-06-04 11:28:00,74.1,58.4,30.03,East,93,2.0,6.0,58,0.00,,,0.00,Wunderground v.1.15,2013-06-04 16:28:00,
2013-06-04 11:33:00,74.6,59.8,30.03,SSW,201,2.0,4.0,60,0.00,,,0.00,Wunderground v.1.15,2013-06-04 16:33:00,
2013-06-04 11:38:00,75.2,60.4,30.03,SSE,160,1.0,4.0,60,0.00,,,0.00,Wunderground v.1.15,2013-06-04 16:38:00,
2013-06-04 11:43:00,75.5,60.6,30.03,SE,134,3.0,5.0,60,0.00,,,0.00,Wunderground v.1.15,2013-06-04 16:43:00,
2013-06-04 11:48:00,75.9,61.9,30.03,SE,141,1.0,5.0,62,0.00,,,0.00,Wunderground v.1.15,2013-06-04 16:48:00,
2013-06-04 11:54:00,75.9,59.6,30.03,NE,48,1.0,7.0,57,0.00,,,0.00,Wunderground v.1.15,2013-06-04 16:54:00,
2013-06-04 11:59:00,76.1,58.8,30.04,SE,125,0.0,7.0,55,0.00,,,0.00,Wunderground v.1.15,2013-06-04 16:59:00,
2013-06-04 12:04:00,76.3,59.4,30.04,ESE,122,2.0,2.0,56,0.00,,,0.00,Wunderground v.1.15,2013-06-04 17:04:00,
2013-06-04 12:09:00,76.6,58.7,30.03,ESE,115,0.0,3.0,54,0.00,,,0.00,Wunderground v.1.15,2013-06-04 17:09:00,
2013-06-04 12:14:00,76.5,59.6,30.03,North,359,0.0,3.0,56,0.00,,,0.00,Wunderground v.1.15,2013-06-04 17:14:00,
2013-06-04 12:19:00,76.5,60.1,30.03,East,96,1.0,3.0,57,0.00,,,0.00,Wunderground v.1.15,2013-06-04 17:19:00,
2013-06-04 12:24:00,76.9,61.0,30.03,ESE,107,0.0,3.0,58,0.00,,,0.00,Wunderground v.1.15,2013-06-04 17:24:00,
2013-06-04 12:29:00,77.3,59.9,30.03,SW,215,1.0,5.0,55,0.00,,,0.00,Wunderground v.1.15,2013-06-04 17:29:00,
2013-06-04 12:34:00,77.2,59.8,30.03,ESE,111,6.0,6.0,55,0.00,,,0.00,Wunderground v.1.15,2013-06-04 17:34:00,
2013-06-04 12:39:00,76.8,59.9,30.03,SSW,209,2.0,7.0,56,0.00,,,0.00,Wunderground v.1.15,2013-06-04 17:39:00,
2013-06-04 12:44:00,77.1,61.2,30.03,NE,50,2.0,3.0,58,0.00,,,0.00,Wunderground v.1.15,2013-06-04 17:44:00,
2013-06-04 12:49:00,77.0,60.6,30.03,ESE,116,2.0,4.0,57,0.00,,,0.00,Wunderground v.1.15,2013-06-04 17:49:00,
2013-06-04 12:54:00,76.7,59.8,30.03,SE,143,3.0,6.0,56,0.00,,,0.00,Wunderground v.1.15,2013-06-04 17:54:00,
2013-06-04 12:59:00,76.8,59.4,30.02,East,82,0.0,6.0,55,0.00,,,0.00,Wunderground v.1.15,2013-06-04 17:59:00,
2013-06-04 13:04:00,76.9,59.5,30.02,SE,129,3.0,4.0,55,0.00,,,0.00,Wunderground v.1.15,2013-06-04 18:04:00,
2013-06-04 13:09:00,76.9,60.0,30.02,ENE,75,2.0,4.0,56,0.00,,,0.00,Wunderground v.1.15,2013-06-04 18:09:00,
2013-06-04 13:14:00,77.5,61.1,30.02,East,80,0.0,3.0,57,0.00,,,0.00,Wunderground v.1.15,2013-06-04 18:14:00,
2013-06-04 13:19:00,77.9,61.4,30.02,ESE,108,4.0,5.0,57,0.00,,,0.00,Wunderground v.1.15,2013-06-04 18:19:00,
2013-06-04 13:24:00,77.1,59.7,30.02,East,98,2.0,7.0,55,0.00,,,0.00,Wunderground v.1.15,2013-06-04 18:24:00,
2013-06-04 13:29:00,77.0,60.6,30.03,East,95,1.0,7.0,57,0.00,,,0.00,Wunderground v.1.15,2013-06-04 18:29:00,
2013-06-04 13:34:00,77.0,59.6,30.03,East,82,2.0,5.0,55,0.00,,,0.00,Wunderground v.1.15,2013-06-04 18:34:00,
2013-06-04 13:39:00,76.7,59.8,30.02,East,97,1.0,5.0,56,0.00,,,0.00,Wunderground v.1.15,2013-06-04 18:39:00,
2013-06-04 13:44:00,77.0,60.6,30.02,SE,126,0.0,2.0,57,0.00,,,0.00,Wunderground v.1.15,2013-06-04 18:44:00,
2013-06-04 13:49:00,78.1,61.6,30.02,South,172,2.0,6.0,57,0.00,,,0.00,Wunderground v.1.15,2013-06-04 18:49:00,
2013-06-04 13:54:00,78.7,61.2,30.02,West,267,3.0,5.0,55,0.00,,,0.00,Wunderground v.1.15,2013-06-04 18:54:00,
2013-06-04 13:59:00,78.6,62.1,30.02,SE,132,4.0,7.0,57,0.00,,,0.00,Wunderground v.1.15,2013-06-04 18:59:00,
2013-06-04 14:04:00,79.1,61.0,30.02,NW,318,3.0,5.0,54,0.00,,,0.00,Wunderground v.1.15,2013-06-04 19:04:00,
2013-06-04 14:09:00,78.6,60.6,30.01,NW,311,5.0,6.0,54,0.00,,,0.00,Wunderground v.1.15,2013-06-04 19:09:00,
2013-06-04 14:14:00,78.4,59.9,30.01,West,264,2.0,6.0,53,0.00,,,0.00,Wunderground v.1.15,2013-06-04 19:14:00,
2013-06-04 14:19:00,78.8,60.2,30.01,SSW,203,1.0,6.0,53,0.00,,,0.00,Wunderground v.1.15,2013-06-04 19:19:00,
2013-06-04 14:24:00,78.8,60.2,30.00,West,271,1.0,5.0,53,0.00,,,0.00,Wunderground v.1.15,2013-06-04 19:24:00,
2013-06-04 14:29:00,79.0,60.9,30.00,NE,46,4.0,5.0,54,0.00,,,0.00,Wunderground v.1.15,2013-06-04 19:29:00,
2013-06-04 14:34:00,79.0,59.3,30.00,NW,312,1.0,4.0,51,0.00,,,0.00,Wunderground v.1.15,2013-06-04 19:34:00,
2013-06-04 14:39:00,79.2,61.1,30.00,SSE,166,3.0,5.0,54,0.00,,,0.00,Wunderground v.1.15,2013-06-04 19:39:00,
2013-06-04 14:44:00,78.6,60.6,30.00,SW,220,1.0,4.0,54,0.00,,,0.00,Wunderground v.1.15,2013-06-04 19:44:00,
2013-06-04 14:49:00,78.7,59.6,30.00,ESE,115,0.0,4.0,52,0.00,,,0.00,Wunderground v.1.15,2013-06-04 19:49:00,
2013-06-04 14:54:00,79.3,60.1,30.00,SE,131,0.0,4.0,52,0.00,,,0.00,Wunderground v.1.15,2013-06-04 19:54:00,
2013-06-04 14:59:00,79.4,59.1,30.00,NW,314,1.0,4.0,50,0.00,,,0.00,Wunderground v.1.15,2013-06-04 19:59:00,
2013-06-04 15:04:00,79.2,60.1,30.00,WNW,298,1.0,2.0,52,0.00,,,0.00,Wunderground v.1.15,2013-06-04 20:04:00,
2013-06-04 15:09:00,79.0,60.4,30.00,NW,305,0.0,2.0,53,0.00,,,0.00,Wunderground v.1.15,2013-06-04 20:09:00,
2013-06-04 15:14:00,80.0,62.4,30.00,SE,136,2.0,4.0,55,0.00,,,0.00,Wunderground v.1.15,2013-06-04 20:14:00,
2013-06-04 15:19:00,80.3,61.6,30.00,ESE,122,2.0,5.0,53,0.00,,,0.00,Wunderground v.1.15,2013-06-04 20:19:00,
2013-06-04 15:24:00,80.3,60.5,30.00,SE,135,3.0,6.0,51,0.00,,,0.00,Wunderground v.1.15,2013-06-04 20:24:00,
2013-06-04 15:29:00,79.6,61.0,30.00,East,95,0.0,6.0,53,0.00,,,0.00,Wunderground v.1.15,2013-06-04 20:29:00,
2013-06-04 15:34:00,80.4,62.8,30.00,NE,43,5.0,5.0,55,0.00,,,0.00,Wunderground v.1.15,2013-06-04 20:34:00,
2013-06-04 15:39:00,80.5,61.8,29.99,East,96,3.0,6.0,53,0.00,,,0.00,Wunderground v.1.15,2013-06-04 20:39:00,
2013-06-04 15:44:00,80.2,61.5,29.99,NE,56,5.0,8.0,53,0.00,,,0.00,Wunderground v.1.15,2013-06-04 20:44:00,
2013-06-04 15:49:00,79.8,61.7,29.99,NE,51,3.0,8.0,54,0.00,,,0.00,Wunderground v.1.15,2013-06-04 20:49:00,
2013-06-04 15:54:00,80.7,63.0,29.99,NE,56,3.0,6.0,55,0.00,,,0.00,Wunderground v.1.15,2013-06-04 20:54:00,
2013-06-04 15:59:00,80.6,60.8,29.99,SE,139,4.0,6.0,51,0.00,,,0.00,Wunderground v.1.15,2013-06-04 20:59:00,
2013-06-04 16:04:00,80.3,60.5,29.99,SSE,148,5.0,5.0,51,0.00,,,0.00,Wunderground v.1.15,2013-06-04 21:04:00,
2013-06-04 16:09:00,79.5,59.8,29.99,SSE,155,1.0,5.0,51,0.00,,,0.00,Wunderground v.1.15,2013-06-04 21:09:00,
2013-06-04 16:14:00,79.4,61.3,29.99,SSE,158,1.0,3.0,54,0.00,,,0.00,Wunderground v.1.15,2013-06-04 21:14:00,
2013-06-04 16:19:00,79.0,62.0,29.99,NE,50,3.0,4.0,56,0.00,,,0.00,Wunderground v.1.15,2013-06-04 21:19:00,
2013-06-04 16:24:00,78.8,61.8,29.99,ESE,106,2.0,6.0,56,0.00,,,0.00,Wunderground v.1.15,2013-06-04 21:24:00,
2013-06-04 16:29:00,78.2,61.7,29.99,East,99,2.0,2.0,57,0.00,,,0.00,Wunderground v.1.15,2013-06-04 21:29:00,
2013-06-04 16:34:00,78.1,61.6,29.99,East,80,1.0,3.0,57,0.00,,,0.00,Wunderground v.1.15,2013-06-04 21:34:00,
2013-06-04 16:39:00,78.2,61.2,29.99,ENE,61,0.0,1.0,56,0.00,,,0.00,Wunderground v.1.15,2013-06-04 21:39:00,
2013-06-04 16:44:00,78.5,60.5,29.99,ESE,110,0.0,2.0,54,0.00,,,0.00,Wunderground v.1.15,2013-06-04 21:44:00,
2013-06-04 16:49:00,79.8,61.1,29.99,East,80,0.0,0.0,53,0.00,,,0.00,Wunderground v.1.15,2013-06-04 21:49:00,
2013-06-04 16:54:00,80.2,61.0,29.99,NE,49,2.0,4.0,52,0.00,,,0.00,Wunderground v.1.15,2013-06-04 21:54:00,
2013-06-04 17:00:00,79.3,61.2,29.98,ESE,122,2.0,3.0,54,0.00,,,0.00,Wunderground v.1.15,2013-06-04 22:00:00,
2013-06-04 17:05:00,78.9,61.4,29.98,SSE,155,3.0,5.0,55,0.00,,,0.00,Wunderground v.1.15,2013-06-04 22:05:00,
2013-06-04 17:10:00,79.0,60.4,29.98,SE,124,0.0,3.0,53,0.00,,,0.00,Wunderground v.1.15,2013-06-04 22:10:00,
2013-06-04 17:15:00,79.4,61.3,29.98,ENE,67,2.0,6.0,54,0.00,,,0.00,Wunderground v.1.15,2013-06-04 22:15:00,
2013-06-04 17:20:00,79.8,60.1,29.98,East,96,2.0,5.0,51,0.00,,,0.00,Wunderground v.1.15,2013-06-04 22:20:00,
2013-06-04 17:25:00,79.9,61.2,29.98,NE,56,2.0,7.0,53,0.00,,,0.00,Wunderground v.1.15,2013-06-04 22:25:00,
2013-06-04 17:30:00,80.1,62.5,29.98,SE,144,0.0,2.0,55,0.00,,,0.00,Wunderground v.1.15,2013-06-04 22:30:00,
2013-06-04 17:35:00,80.4,61.2,29.98,ENE,76,1.0,2.0,52,0.00,,,0.00,Wunderground v.1.15,2013-06-04 22:35:00,
2013-06-04 17:40:00,80.2,60.4,29.97,East,100,2.0,2.0,51,0.00,,,0.00,Wunderground v.1.15,2013-06-04 22:40:00,
2013-06-04 17:45:00,80.3,60.5,29.97,ESE,117,1.0,4.0,51,0.00,,,0.00,Wunderground v.1.15,2013-06-04 22:45:00,
2013-06-04 17:50:00,80.1,60.9,29.97,SE,143,3.0,3.0,52,0.00,,,0.00,Wunderground v.1.15,2013-06-04 22:50:00,
2013-06-04 17:55:00,79.9,59.6,29.97,ESE,112,3.0,5.0,50,0.00,,,0.00,Wunderground v.1.15,2013-06-04 22:55:00,
2013-06-04 18:00:00,79.8,60.6,29.97,ENE,60,1.0,4.0,52,0.00,,,0.00,Wunderground v.1.15,2013-06-04 23:00:00,
2013-06-04 18:05:00,80.1,61.4,29.97,SSE,167,0.0,4.0,53,0.00,,,0.00,Wunderground v.1.15,2013-06-04 23:05:00,
2013-06-04 18:10:00,79.8,60.1,29.97,East,96,4.0,4.0,51,0.00,,,0.00,Wunderground v.1.15,2013-06-04 23:10:00,
2013-06-04 18:15:00,79.5,59.8,29.97,East,86,4.0,6.0,51,0.00,,,0.00,Wunderground v.1.15,2013-06-04 23:15:00,
2013-06-04 18:20:00,79.2,60.1,29.97,SE,124,4.0,4.0,52,0.00,,,0.00,Wunderground v.1.15,2013-06-04 23:20:00,
2013-06-04 18:25:00,79.2,60.6,29.97,ESE,118,0.0,5.0,53,0.00,,,0.00,Wunderground v.1.15,2013-06-04 23:25:00,
2013-06-04 18:30:00,79.2,60.6,29.97,East,98,0.0,2.0,53,0.00,,,0.00,Wunderground v.1.15,2013-06-04 23:30:00,
2013-06-04 18:35:00,79.4,60.8,29.97,ESE,107,0.0,3.0,53,0.00,,,0.00,Wunderground v.1.15,2013-06-04 23:35:00,
2013-06-04 18:40:00,79.4,60.8,29.97,East,100,1.0,1.0,53,0.00,,,0.00,Wunderground v.1.15,2013-06-04 23:40:00,
2013-06-04 18:45:00,79.3,61.2,29.97,East,90,2.0,2.0,54,0.00,,,0.00,Wunderground v.1.15,2013-06-04 23:45:00,
2013-06-04 18:50:00,79.2,61.6,29.97,ESE,113,0.0,1.0,55,0.00,,,0.00,Wunderground v.1.15,2013-06-04 23:50:00,
2013-06-04 18:55:00,79.3,61.2,29.97,ESE,114,0.0,1.0,54,0.00,,,0.00,Wunderground v.1.15,2013-06-04 23:55:00,
2013-06-04 19:00:00,79.6,61.5,29.97,ESE,113,1.0,1.0,54,0.00,,,0.00,Wunderground v.1.15,2013-06-05 00:00:00,
2013-06-04 19:05:00,79.6,61.5,29.97,East,94,2.0,2.0,54,0.00,,,0.00,Wunderground v.1.15,2013-06-05 00:05:00,
2013-06-04 19:10:00,79.0,62.0,29.97,East,94,0.0,0.0,56,0.00,,,0.00,Wunderground v.1.15,2013-06-05 00:10:00,
2013-06-04 19:15:00,78.5,62.0,29.97,East,92,1.0,1.0,57,0.00,,,0.00,Wunderground v.1.15,2013-06-05 00:15:00,
2013-06-04 19:20:00,77.7,62.2,29.97,East,94,1.0,1.0,59,0.00,,,0.00,Wunderground v.1.15,2013-06-05 00:20:00,
2013-06-04 19:25:00,77.3,62.8,29.96,East,94,0.0,1.0,61,0.00,,,0.00,Wunderground v.1.15,2013-06-05 00:25:00,
2013-06-04 19:30:00,76.7,63.2,29.97,East,95,0.0,0.0,63,0.00,,,0.00,Wunderground v.1.15,2013-06-05 00:30:00,
2013-06-04 19:35:00,76.2,63.1,29.97,East,94,0.0,0.0,64,0.00,,,0.00,Wunderground v.1.15,2013-06-05 00:35:00,
2013-06-04 19:40:00,75.4,63.2,29.97,East,94,0.0,1.0,66,0.00,,,0.00,Wunderground v.1.15,2013-06-05 00:40:00,
2013-06-04 19:46:00,74.5,63.2,29.97,East,94,0.0,1.0,68,0.00,,,0.00,Wunderground v.1.15,2013-06-05 00:46:00,
2013-06-04 19:51:00,73.6,62.4,29.97,East,95,0.0,0.0,68,0.00,,,0.00,Wunderground v.1.15,2013-06-05 00:51:00,
2013-06-04 19:56:00,72.9,62.5,29.97,East,95,0.0,0.0,70,0.00,,,0.00,Wunderground v.1.15,2013-06-05 00:56:00,
2013-06-04 20:01:00,72.3,62.4,29.97,East,95,0.0,0.0,71,0.00,,,0.00,Wunderground v.1.15,2013-06-05 01:01:00,
2013-06-04 20:06:00,71.6,62.1,29.97,East,94,0.0,0.0,72,0.00,,,0.00,Wunderground v.1.15,2013-06-05 01:06:00,
2013-06-04 20:11:00,71.0,62.3,29.97,East,95,0.0,0.0,74,0.00,,,0.00,Wunderground v.1.15,2013-06-05 01:11:00,
2013-06-04 20:16:00,70.4,62.8,29.97,East,94,0.0,0.0,77,0.00,,,0.00,Wunderground v.1.15,2013-06-05 01:16:00,
2013-06-04 20:21:00,69.7,62.9,29.98,East,94,0.0,0.0,79,0.00,,,0.00,Wunderground v.1.15,2013-06-05 01:21:00,
2013-06-04 20:26:00,69.2,62.4,29.97,ENE,57,0.0,2.0,79,0.00,,,0.00,Wunderground v.1.15,2013-06-05 01:26:00,
2013-06-04 20:31:00,68.9,62.5,29.98,ENE,57,0.0,0.0,80,0.00,,,0.00,Wunderground v.1.15,2013-06-05 01:31:00,
2013-06-04 20:36:00,68.7,62.3,29.97,ENE,57,0.0,0.0,80,0.00,,,0.00,Wunderground v.1.15,2013-06-05 01:36:00,
2013-06-04 20:42:00,68.7,61.9,29.97,ENE,57,0.0,0.0,79,0.00,,,0.00,Wunderground v.1.15,2013-06-05 01:42:00,
2013-06-04 20:47:00,68.8,62.0,29.98,ENE,57,0.0,0.0,79,0.00,,,0.00,Wunderground v.1.15,2013-06-05 01:47:00,
2013-06-04 20:52:00,68.8,62.4,29.98,ENE,57,0.0,0.0,80,0.00,,,0.00,Wunderground v.1.15,2013-06-05 01:52:00,
2013-06-04 20:57:00,68.5,62.1,29.98,ENE,57,0.0,0.0,80,0.00,,,0.00,Wunderground v.1.15,2013-06-05 01:57:00,
2013-06-04 21:02:00,68.0,61.9,29.98,ENE,57,0.0,0.0,81,0.00,,,0.00,Wunderground v.1.15,2013-06-05 02:02:00,
2013-06-04 21:07:00,67.7,62.0,29.98,NE,56,0.0,0.0,82,0.00,,,0.00,Wunderground v.1.15,2013-06-05 02:07:00,
2013-06-04 21:12:00,67.4,62.1,29.98,ENE,57,0.0,0.0,83,0.00,,,0.00,Wunderground v.1.15,2013-06-05 02:12:00,
2013-06-04 21:17:00,67.4,62.4,29.98,ENE,57,0.0,0.0,84,0.00,,,0.00,Wunderground v.1.15,2013-06-05 02:17:00,
2013-06-04 21:22:00,67.7,62.0,29.98,ESE,112,0.0,1.0,82,0.00,,,0.00,Wunderground v.1.15,2013-06-05 02:22:00,
2013-06-04 21:27:00,67.9,62.2,29.98,ESE,111,0.0,1.0,82,0.00,,,0.00,Wunderground v.1.15,2013-06-05 02:27:00,
2013-06-04 21:32:00,67.7,62.3,29.98,ESE,111,0.0,0.0,83,0.00,,,0.00,Wunderground v.1.15,2013-06-05 02:32:00,
2013-06-04 21:37:00,67.5,62.5,29.98,ESE,112,0.0,0.0,84,0.00,,,0.00,Wunderground v.1.15,2013-06-05 02:37:00,
2013-06-04 21:42:00,67.3,62.0,29.98,ESE,112,0.0,0.0,83,0.00,,,0.00,Wunderground v.1.15,2013-06-05 02:42:00,
2013-06-04 21:47:00,67.4,62.1,29.98,ESE,112,0.0,0.0,83,0.00,,,0.00,Wunderground v.1.15,2013-06-05 02:47:00,
2013-06-04 21:52:00,67.3,62.3,29.99,ESE,111,0.0,0.0,84,0.00,,,0.00,Wunderground v.1.15,2013-06-05 02:52:00,
2013-06-04 21:57:00,67.1,62.1,29.98,ESE,111,0.0,0.0,84,0.00,,,0.00,Wunderground v.1.15,2013-06-05 02:57:00,
2013-06-04 22:02:00,67.0,62.3,29.99,ESE,111,0.0,0.0,85,0.00,,,0.00,Wunderground v.1.15,2013-06-05 03:02:00,
2013-06-04 22:07:00,66.8,62.1,29.99,ESE,112,0.0,0.0,85,0.00,,,0.00,Wunderground v.1.15,2013-06-05 03:07:00,
2013-06-04 22:12:00,66.7,62.0,29.99,ESE,111,0.0,0.0,85,0.00,,,0.00,Wunderground v.1.15,2013-06-05 03:12:00,
2013-06-04 22:19:00,66.5,61.8,29.99,ESE,111,0.0,0.0,85,0.00,,,0.00,Wunderground v.1.15,2013-06-05 03:19:00,
2013-06-04 22:24:00,66.4,62.1,29.99,ESE,112,0.0,0.0,86,0.00,,,0.00,Wunderground v.1.15,2013-06-05 03:24:00,
2013-06-04 22:29:00,66.3,62.0,29.99,ESE,112,0.0,0.0,86,0.00,,,0.00,Wunderground v.1.15,2013-06-05 03:29:00,
2013-06-04 22:34:00,66.3,62.0,29.99,ESE,112,0.0,1.0,86,0.00,,,0.00,Wunderground v.1.15,2013-06-05 03:34:00,
2013-06-04 22:39:00,66.6,61.9,29.99,ESE,112,0.0,0.0,85,0.00,,,0.00,Wunderground v.1.15,2013-06-05 03:39:00,
2013-06-04 22:44:00,66.8,62.1,29.99,ESE,112,0.0,0.0,85,0.00,,,0.00,Wunderground v.1.15,2013-06-05 03:44:00,
2013-06-04 22:49:00,66.8,61.8,29.99,ESE,111,0.0,0.0,84,0.00,,,0.00,Wunderground v.1.15,2013-06-05 03:49:00,
2013-06-04 22:54:00,67.0,62.3,29.99,ESE,110,0.0,1.0,85,0.00,,,0.00,Wunderground v.1.15,2013-06-05 03:54:00,
2013-06-04 22:59:00,67.0,62.3,29.99,ESE,110,0.0,0.0,85,0.00,,,0.00,Wunderground v.1.15,2013-06-05 03:59:00,
2013-06-04 23:01:00,67.0,62.3,29.99,ESE,110,0.0,0.0,85,0.00,,,0.00,Wunderground v.1.15,2013-06-05 04:01:00,
2013-06-04 23:02:00,67.0,62.3,29.99,ESE,110,0.0,0.0,85,0.00,,,0.00,Wunderground v.1.15,2013-06-05 04:02:00,
2013-06-04 23:07:00,67.2,62.2,29.99,ESE,108,0.0,1.0,84,0.00,,,0.00,Wunderground v.1.15,2013-06-05 04:07:00,
2013-06-04 23:12:00,67.3,62.3,29.99,ESE,107,0.0,0.0,84,0.00,,,0.00,Wunderground v.1.15,2013-06-05 04:12:00,
2013-06-04 23:17:00,67.1,62.1,29.99,ESE,107,0.0,0.0,84,0.00,,,0.00,Wunderground v.1.15,2013-06-05 04:17:00,
2013-06-04 23:22:00,67.1,62.4,29.99,ESE,107,0.0,0.0,85,0.00,,,0.00,Wunderground v.1.15,2013-06-05 04:22:00,
2013-06-04 23:27:00,67.1,62.1,29.99,East,89,0.0,1.0,84,0.00,,,0.00,Wunderground v.1.15,2013-06-05 04:27:00,
2013-06-04 23:32:00,67.2,62.2,29.99,East,89,0.0,1.0,84,0.00,,,0.00,Wunderground v.1.15,2013-06-05 04:32:00,
2013-06-04 23:37:00,67.2,62.2,29.99,East,89,0.0,1.0,84,0.00,,,0.00,Wunderground v.1.15,2013-06-05 04:37:00,
2013-06-04 23:42:00,67.1,62.1,29.98,East,85,0.0,1.0,84,0.00,,,0.00,Wunderground v.1.15,2013-06-05 04:42:00,
2013-06-04 23:47:00,67.1,62.1,29.98,ENE,57,1.0,2.0,84,0.00,,,0.00,Wunderground v.1.15,2013-06-05 04:47:00,
2013-06-04 23:52:00,67.2,62.2,29.98,ENE,57,0.0,1.0,84,0.00,,,0.00,Wunderground v.1.15,2013-06-05 04:52:00,
2013-06-04 23:57:00,67.2,61.9,29.98,ENE,57,0.0,1.0,83,0.00,,,0.00,Wunderground v.1.15,2013-06-05 04:57:00,